Hourly Data Report for October 26, 2016

All times are specified in Local Standard Time (LST). Add 1 hour to adjust for Daylight Saving Time where and when it is observed.

HALL BEACH A
NUNAVUT

68°46'33.000" N
81°14'33.000" W
9.10 m
2402354
71293
YUX

Download Data

Hourly Data (October 2016)
Hourly Data Report for October 26, 2016
Temp Definition
°C
Dew Point Temp Definition
°C
Rel Hum Definition
%
Wind Dir Definition
10's deg

Wind Spd Definition
km/h
Visibility Definition
km
Stn Press Definition
kPa
Hmdx Definition


Wind Chill Definition


Weather Definition


TIME
00:00 Legend Double Dagger -15.3 -16.9 88 26 9 16.1 101.91   -21 LegendNANA
01:00 Legend Double Dagger -13.3 -14.9 88 26 11 16.1 101.84   -20 LegendNANA
02:00 Legend Double Dagger -12.6 -14.2 88 24 11 16.1 101.80   -19 LegendNANA
03:00 Legend Double Dagger -11.8 -13.4 88 26 15 16.1 101.73   -19 Snow
04:00 Legend Double Dagger -11.6 -13.1 89 25 15 16.1 101.69   -19 Snow
05:00 Legend Double Dagger -12.0 -13.5 89 26 15 16.1 101.66   -19 LegendNANA
06:00 Legend Double Dagger -12.0 -13.3 90 26 9 16.1 101.60   -17 LegendNANA
07:00 Legend Double Dagger -11.6 -12.8 91 25 15 14.5 101.57   -19 Snow
08:00 Legend Double Dagger -11.6 -12.8 91 26 18 16.1 101.52   -19 Snow
09:00 Legend Double Dagger -10.6 -11.7 92 25 17 16.1 101.46   -18 Snow
10:00 Legend Double Dagger -10.8 -12.0 91 26 18 16.1 101.39   -18 LegendNANA
11:00 Legend Double Dagger -10.6 -11.8 91 25 15 6.4 101.34   -17 Snow
12:00 Legend Double Dagger -10.6 -11.9 90 25 15 16.1 101.29   -17 Snow
13:00 Legend Double Dagger -10.3 -11.8 89 25 18 16.1 101.22   -18 LegendNANA
14:00 Legend Double Dagger -10.5 -11.8 90 25 17 16.1 101.17   -18 LegendNANA
15:00 Legend Double Dagger -10.0 -11.3 90 25 11 16.1 101.10   -16 LegendNANA
16:00 Legend Double Dagger -10.0 -11.1 92 23 15 16.1 101.02   -17 Snow
17:00 Legend Double Dagger -9.8 -10.7 93 23 18 16.1 100.92   -17 Snow
18:00 Legend Double Dagger -9.3 -10.3 92 22 18 9.7 100.83   -17 Snow
19:00 Legend Double Dagger -8.1 -9.0 93 22 22 4.8 100.74   -16 Snow
20:00 Legend Double Dagger -7.6 -8.5 93 23 22 2.0 100.63   -15 Snow
21:00 Legend Double Dagger -7.4 -8.3 93 25 21 4.8 100.54   -15 Snow
22:00 Legend Double Dagger -7.4 -8.2 94 24 17 2.0 100.46   -14 Snow
23:00 Legend Double Dagger -7.7 -8.6 93 26 22 6.4 100.39   -15 Snow

Notes on Data Quality.

Legend

  • E = Estimated
  • M = Missing
  • NA = Not Available
  • ‡ = Partner data that is not subject to review by the National Climate Archives
Date modified: